Location: Eitze
(52.9840°N, 9.6894°E)
Time: 16:28:06
(UTC+00:00)

Cosmos 2333 Rocket - Pass Details

Date: 19 May 2025
Orbit: 840 x 862 km, 70.8° (Epoch: 17 June)

Event Time Altitude Azimuth Distance (km) Brightness Sun altitude
Rises 22:03:18 0° 328° (NNW) 3,444 7.0 -15.3°
Reaches altitude 10° 22:05:50 10° 333° (NNW) 2,502 6.0 -15.4°
Maximum altitude 22:11:29 56° 51° (NE) 1,007 2.7 -15.6°
Enters shadow 22:15:54 17° 126° (SE) 2,047 3.8 -15.8°
